| time (UTC) | temp F | wind direction | speed MPH | gust MPH | rain 1hr in | rain 24hr in | rain mn in | humidity % | barometer mb |
| 20260901161204 | 65 | 125 | 0.0 | 0.0 | 0.00 | 0.00 | 0.00 | 69 | 1019.0 |
| 20260901160704 | 64 | 130 | 0.0 | 0.0 | 0.00 | 0.00 | 0.00 | 69 | 1019.1 |
| 20260901160204 | 64 | 140 | 0.0 | 0.0 | 0.00 | 0.00 | 0.00 | 70 | 1019.1 |
| 20260901155704 | 64 | 133 | 0.0 | 0.0 | 0.00 | 0.00 | 0.00 | 69 | 1019.1 |
| 20260901155204 | 64 | 129 | 0.0 | 0.0 | 0.00 | 0.00 | 0.00 | 72 | 1019.0 |
| 20260901154703 | 64 | 129 | 0.0 | 0.0 | 0.00 | 0.00 | 0.00 | 72 | 1018.9 |
| 20260901153704 | 63 | 128 | 0.0 | 0.0 | 0.00 | 0.00 | 0.00 | 72 | 1018.8 |
| 20260901153204 | 63 | 128 | 0.0 | 0.0 | 0.00 | 0.00 | 0.00 | 73 | 1018.7 |
| 20260901152204 | 63 | 127 | 0.0 | 0.0 | 0.00 | 0.00 | 0.00 | 74 | 1018.6 |
| 20260901151704 | 62 | 99 | 0.0 | 0.0 | 0.00 | 0.00 | 0.00 | 75 | 1018.6 |
| 20260901150704 | 62 | 99 | 0.0 | 0.0 | 0.00 | 0.00 | 0.00 | 76 | 1018.6 |
| 20260901145703 | 61 | 99 | 0.0 | 0.0 | 0.00 | 0.00 | 0.00 | 77 | 1018.6 |
| 20260901145204 | 61 | 99 | 0.0 | 0.0 | 0.00 | 0.00 | 0.00 | 77 | 1018.5 |
| 20260901144704 | 61 | 99 | 0.0 | 0.0 | 0.00 | 0.00 | 0.00 | 77 | 1018.4 |
| 20260901143704 | 61 | 129 | 0.0 | 0.0 | 0.00 | 0.00 | 0.00 | 77 | 1018.3 |
| 20260901143204 | 61 | 129 | 0.0 | 0.0 | 0.00 | 0.00 | 0.00 | 78 | 1018.3 |
| 20260901142705 | 60 | 129 | 0.0 | 0.0 | 0.00 | 0.00 | 0.00 | 78 | 1018.2 |
| 20260901141705 | 60 | 129 | 0.0 | 0.0 | 0.00 | 0.00 | 0.00 | 78 | 1018.1 |
| 20260901141204 | 60 | 129 | 0.0 | 0.0 | 0.00 | 0.00 | 0.00 | 78 | 1018.0 |
| 20260901140704 | 60 | 129 | 0.0 | 0.0 | 0.00 | 0.00 | 0.00 | 78 | 1018.0 |
| 20260901140204 | 60 | 129 | 0.0 | 0.0 | 0.00 | 0.00 | 0.00 | 77 | 1017.9 |
| 20260901135704 | 60 | 129 | 0.0 | 0.0 | 0.00 | 0.00 | 0.00 | 77 | 1017.8 |
| 20260901135205 | 60 | 129 | 0.0 | 0.0 | 0.00 | 0.00 | 0.00 | 77 | 1017.9 |
| 20260901134704 | 60 | 129 | 0.0 | 0.0 | 0.00 | 0.00 | 0.00 | 77 | 1017.8 |
| 20260901134204 | 60 | 129 | 0.0 | 0.0 | 0.00 | 0.00 | 0.00 | 77 | 1017.8 |
| 20260901133704 | 60 | 129 | 0.0 | 0.0 | 0.00 | 0.00 | 0.00 | 78 | 1017.7 |
| 20260901133204 | 60 | 126 | 0.0 | 0.0 | 0.00 | 0.00 | 0.00 | 78 | 1017.7 |
| 20260901132704 | 60 | 124 | 0.0 | 0.0 | 0.00 | 0.00 | 0.00 | 78 | 1017.6 |
| 20260901132204 | 60 | 124 | 0.0 | 0.0 | 0.00 | 0.00 | 0.00 | 78 | 1017.7 |
| 20260901131704 | 60 | 124 | 0.0 | 0.0 | 0.00 | 0.00 | 0.00 | 78 | 1017.6 |
| 20260901130204 | 60 | 124 | 0.0 | 0.0 | 0.00 | 0.00 | 0.00 | 78 | 1017.5 |
| 20260901125704 | 60 | 124 | 0.0 | 0.0 | 0.00 | 0.00 | 0.00 | 79 | 1017.5 |
| 20260901125204 | 60 | 124 | 0.0 | 0.0 | 0.00 | 0.00 | 0.00 | 79 | 1017.4 |
| 20260901123204 | 60 | 123 | 0.0 | 0.0 | 0.00 | 0.00 | 0.00 | 79 | 1017.1 |
| 20260901122704 | 60 | 123 | 0.0 | 0.0 | 0.00 | 0.00 | 0.00 | 79 | 1017.2 |
| 20260901122204 | 60 | 123 | 0.0 | 0.0 | 0.00 | 0.00 | 0.00 | 79 | 1017.2 |
| 20260901121704 | 60 | 123 | 0.0 | 0.0 | 0.00 | 0.00 | 0.00 | 79 | 1017.2 |
| 20260901120704 | 60 | 122 | 0.0 | 0.0 | 0.00 | 0.00 | 0.00 | 79 | 1017.1 |
| 20260901120204 | 60 | 122 | 0.0 | 0.0 | 0.00 | 0.00 | 0.00 | 79 | 1017.3 |
| 20260901115704 | 60 | 122 | 0.0 | 0.0 | 0.00 | 0.00 | 0.00 | 79 | 1017.3 |
| 20260901115205 | 60 | 122 | 0.0 | 0.0 | 0.00 | 0.00 | 0.00 | 80 | 1017.3 |
| 20260901114204 | 60 | 122 | 0.0 | 0.0 | 0.00 | 0.00 | 0.00 | 80 | 1017.2 |
| 20260901113704 | 60 | 122 | 0.0 | 0.0 | 0.00 | 0.00 | 0.00 | 80 | 1017.3 |
| 20260901113204 | 60 | 122 | 0.0 | 0.0 | 0.00 | 0.00 | 0.00 | 80 | 1017.5 |
| 20260901112704 | 60 | 122 | 0.0 | 0.0 | 0.00 | 0.00 | 0.00 | 80 | 1017.5 |
| 20260901112204 | 60 | 122 | 0.0 | 0.0 | 0.00 | 0.00 | 0.00 | 80 | 1017.5 |
| 20260901111704 | 60 | 122 | 0.0 | 0.0 | 0.00 | 0.00 | 0.00 | 80 | 1017.6 |
| 20260901111204 | 60 | 122 | 0.0 | 0.0 | 0.00 | 0.00 | 0.00 | 80 | 1017.5 |
| 20260901110705 | 60 | 122 | 0.0 | 0.0 | 0.00 | 0.00 | 0.00 | 80 | 1017.5 |
| 20260901110205 | 60 | 122 | 0.0 | 0.0 | 0.00 | 0.00 | 0.00 | 81 | 1017.5 |
| 20260901105704 | 60 | 122 | 0.0 | 0.0 | 0.00 | 0.00 | 0.00 | 81 | 1017.5 |
| 20260901105204 | 59 | 122 | 0.0 | 0.0 | 0.00 | 0.00 | 0.00 | 81 | 1017.6 |
| 20260901104705 | 59 | 122 | 0.0 | 0.0 | 0.00 | 0.00 | 0.00 | 81 | 1017.6 |
| 20260901104204 | 59 | 122 | 0.0 | 0.0 | 0.00 | 0.00 | 0.00 | 81 | 1017.5 |
| 20260901103705 | 59 | 122 | 0.0 | 0.0 | 0.00 | 0.00 | 0.00 | 82 | 1017.4 |
| 20260901103204 | 59 | 122 | 0.0 | 0.0 | 0.00 | 0.00 | 0.00 | 82 | 1017.5 |
| 20260901102704 | 59 | 122 | 0.0 | 0.0 | 0.00 | 0.00 | 0.00 | 83 | 1017.3 |
| 20260901102204 | 59 | 122 | 0.0 | 0.0 | 0.00 | 0.00 | 0.00 | 83 | 1017.3 |
| 20260901101704 | 59 | 122 | 0.0 | 0.0 | 0.00 | 0.00 | 0.00 | 83 | 1017.3 |
| 20260901101204 | 59 | 122 | 0.0 | 0.0 | 0.00 | 0.00 | 0.00 | 83 | 1017.3 |
| 20260901095704 | 59 | 122 | 0.0 | 0.0 | 0.00 | 0.00 | 0.00 | 84 | 1017.2 |
| 20260901095204 | 59 | 122 | 0.0 | 0.0 | 0.00 | 0.00 | 0.00 | 84 | 1017.3 |
| 20260901094704 | 59 | 122 | 0.0 | 0.0 | 0.00 | 0.00 | 0.00 | 84 | 1017.2 |
| 20260901093704 | 59 | 122 | 0.0 | 0.0 | 0.00 | 0.00 | 0.00 | 84 | 1017.2 |
| 20260901092704 | 58 | 122 | 0.0 | 0.0 | 0.00 | 0.00 | 0.00 | 84 | 1017.2 |
| 20260901092204 | 58 | 122 | 0.0 | 0.0 | 0.00 | 0.00 | 0.00 | 84 | 1017.3 |
| 20260901091704 | 58 | 122 | 0.0 | 0.0 | 0.00 | 0.00 | 0.00 | 84 | 1017.3 |
| 20260901090204 | 58 | 122 | 0.0 | 0.0 | 0.00 | 0.00 | 0.00 | 85 | 1017.3 |
| 20260901085704 | 58 | 122 | 0.0 | 0.0 | 0.00 | 0.00 | 0.00 | 85 | 1017.3 |
| 20260901085204 | 58 | 122 | 0.0 | 0.0 | 0.00 | 0.00 | 0.00 | 85 | 1017.3 |
| 20260901084704 | 58 | 122 | 0.0 | 0.0 | 0.00 | 0.00 | 0.00 | 85 | 1017.3 |
| 20260901084205 | 58 | 122 | 0.0 | 0.0 | 0.00 | 0.00 | 0.00 | 85 | 1017.3 |
| 20260901083208 | 58 | 122 | 0.0 | 0.0 | 0.00 | 0.00 | 0.00 | 85 | 1017.2 |
| 20260901082204 | 58 | 122 | 0.0 | 0.0 | 0.00 | 0.00 | 0.00 | 86 | 1017.2 |
| 20260901081205 | 57 | 122 | 0.0 | 0.0 | 0.00 | 0.00 | 0.00 | 86 | 1017.3 |
| 20260901080705 | 57 | 122 | 0.0 | 0.0 | 0.00 | 0.00 | 0.00 | 86 | 1017.3 |
| 20260901074705 | 57 | 122 | 0.0 | 0.0 | 0.00 | 0.00 | 0.00 | 86 | 1017.3 |
| 20260901074205 | 57 | 122 | 0.0 | 0.0 | 0.00 | 0.00 | 0.00 | 86 | 1017.3 |
| 20260901073704 | 57 | 122 | 0.0 | 0.0 | 0.00 | 0.00 | 0.00 | 86 | 1017.3 |
| 20260901073204 | 56 | 122 | 0.0 | 0.0 | 0.00 | 0.00 | 0.00 | 86 | 1017.3 |
| 20260901072705 | 56 | 122 | 0.0 | 0.0 | 0.00 | 0.00 | 0.00 | 86 | 1017.3 |
| 20260901072204 | 56 | 122 | 0.0 | 0.0 | 0.00 | 0.00 | 0.00 | 86 | 1017.4 |
| 20260901071704 | 56 | 122 | 0.0 | 0.0 | 0.00 | 0.00 | 0.00 | 86 | 1017.3 |
| 20260901071204 | 56 | 122 | 0.0 | 0.0 | 0.00 | 0.00 | 0.00 | 86 | 1017.3 |
| 20260901070704 | 56 | 122 | 0.0 | 0.0 | 0.00 | 0.00 | 0.00 | 86 | 1017.3 |
| 20260901070204 | 56 | 122 | 0.0 | 0.0 | 0.00 | 0.00 | 0.00 | 86 | 1017.3 |
| 20260901065705 | 56 | 122 | 0.0 | 0.0 | 0.00 | 0.00 | 0.00 | 85 | 1017.4 |
| 20260901065204 | 56 | 122 | 0.0 | 0.0 | 0.00 | 0.00 | 0.00 | 85 | 1017.4 |
| 20260901064705 | 56 | 122 | 0.0 | 0.0 | 0.00 | 0.00 | 0.00 | 85 | 1017.5 |
| 20260901064205 | 56 | 122 | 0.0 | 0.0 | 0.00 | 0.00 | 0.00 | 84 | 1017.4 |
| 20260901063704 | 56 | 122 | 0.0 | 0.0 | 0.00 | 0.00 | 0.00 | 84 | 1017.5 |
| 20260901063205 | 56 | 122 | 0.0 | 0.0 | 0.00 | 0.00 | 0.00 | 84 | 1017.5 |
| 20260901062705 | 56 | 122 | 0.0 | 0.0 | 0.00 | 0.00 | 0.00 | 84 | 1017.5 |
| 20260901062205 | 56 | 122 | 0.0 | 0.0 | 0.00 | 0.00 | 0.00 | 84 | 1017.4 |
| 20260901061704 | 56 | 122 | 0.0 | 0.0 | 0.00 | 0.00 | 0.00 | 83 | 1017.5 |
| 20260901061204 | 57 | 122 | 0.0 | 0.0 | 0.00 | 0.00 | 0.00 | 83 | 1017.4 |
| 20260901060705 | 57 | 122 | 0.0 | 0.0 | 0.00 | 0.00 | 0.00 | 83 | 1017.5 |
| 20260901060214 | 57 | 122 | 0.0 | 0.0 | 0.00 | 0.00 | 0.00 | 83 | 1017.5 |
| 20260901055704 | 57 | 122 | 0.0 | 0.0 | 0.00 | 0.00 | 0.00 | 83 | 1017.6 |
| 20260901054204 | 57 | 122 | 0.0 | 1.0 | 0.00 | 0.00 | 0.00 | 82 | 1017.7 |
| 20260901053704 | 57 | 122 | 0.0 | 1.0 | 0.00 | 0.00 | 0.00 | 82 | 1017.7 |
| 20260901053205 | 57 | 124 | 0.0 | 1.0 | 0.00 | 0.00 | 0.00 | 82 | 1017.7 |
| 20260901052705 | 58 | 122 | 0.0 | 0.0 | 0.00 | 0.00 | 0.00 | 81 | 1017.7 |
| 20260901052205 | 58 | 122 | 0.0 | 0.0 | 0.00 | 0.00 | 0.00 | 81 | 1017.6 |
| 20260901050203 | 58 | 122 | 0.0 | 0.0 | 0.00 | 0.00 | 0.00 | 81 | 1017.4 |
| 20260901045703 | 59 | 122 | 0.0 | 1.0 | 0.00 | 0.00 | 0.00 | 81 | 1017.3 |
| 20260901045203 | 58 | 122 | 0.0 | 1.0 | 0.00 | 0.00 | 0.00 | 81 | 1017.3 |
| 20260901044704 | 58 | 112 | 0.0 | 1.0 | 0.00 | 0.00 | 0.00 | 80 | 1017.2 |
| 20260901044204 | 59 | 127 | 0.0 | 0.0 | 0.00 | 0.00 | 0.00 | 80 | 1017.1 |
| 20260901043704 | 59 | 127 | 0.0 | 0.0 | 0.00 | 0.00 | 0.00 | 80 | 1017.1 |
| 20260901043203 | 59 | 127 | 0.0 | 0.0 | 0.00 | 0.00 | 0.00 | 79 | 1017.1 |
| 20260901042703 | 59 | 127 | 0.0 | 0.0 | 0.00 | 0.00 | 0.00 | 79 | 1017.0 |
| 20260901042203 | 59 | 127 | 0.0 | 0.0 | 0.00 | 0.00 | 0.00 | 79 | 1017.0 |
| 20260901041703 | 60 | 127 | 0.0 | 0.0 | 0.00 | 0.00 | 0.00 | 79 | 1017.0 |
| 20260901041204 | 60 | 127 | 0.0 | 0.0 | 0.00 | 0.00 | 0.00 | 79 | 1017.1 |
| 20260901040703 | 60 | 127 | 0.0 | 0.0 | 0.00 | 0.00 | 0.00 | 78 | 1017.0 |
| 20260901040203 | 60 | 127 | 0.0 | 3.0 | 0.00 | 0.00 | 0.00 | 78 | 1017.0 |
| 20260901035704 | 60 | 127 | 0.0 | 3.0 | 0.00 | 0.00 | 0.00 | 79 | 1016.9 |
| 20260901035204 | 60 | 127 | 0.0 | 0.0 | 0.00 | 0.00 | 0.00 | 78 | 1016.9 |
| 20260901034703 | 60 | 129 | 0.0 | 0.0 | 0.00 | 0.00 | 0.00 | 78 | 1016.9 |
| 20260901033203 | 61 | 129 | 0.0 | 0.0 | 0.00 | 0.00 | 0.00 | 77 | 1016.6 |
| 20260901032704 | 61 | 129 | 0.0 | 0.0 | 0.00 | 0.00 | 0.00 | 77 | 1016.5 |
| 20260901032203 | 61 | 129 | 0.0 | 3.0 | 0.00 | 0.00 | 0.00 | 76 | 1016.5 |
| 20260901031704 | 62 | 129 | 1.0 | 3.0 | 0.00 | 0.00 | 0.00 | 77 | 1016.4 |
| 20260901031203 | 62 | 126 | 0.0 | 3.0 | 0.00 | 0.00 | 0.00 | 76 | 1016.4 |
| 20260901030704 | 62 | 120 | 0.0 | 2.0 | 0.00 | 0.00 | 0.00 | 76 | 1016.3 |
| 20260901030204 | 62 | 116 | 0.0 | 1.0 | 0.00 | 0.00 | 0.00 | 76 | 1016.3 |
| 20260901025704 | 62 | 129 | 0.0 | 1.0 | 0.00 | 0.00 | 0.00 | 75 | 1016.2 |
| 20260901025204 | 62 | 127 | 0.0 | 2.0 | 0.00 | 0.00 | 0.00 | 75 | 1016.3 |
| 20260901024204 | 63 | 126 | 0.0 | 1.0 | 0.00 | 0.00 | 0.00 | 75 | 1016.3 |
| 20260901023703 | 63 | 127 | 0.0 | 1.0 | 0.00 | 0.00 | 0.00 | 74 | 1016.3 |
| 20260901023204 | 63 | 127 | 0.0 | 2.0 | 0.00 | 0.00 | 0.00 | 73 | 1016.3 |
| 20260901022704 | 63 | 122 | 0.0 | 2.0 | 0.00 | 0.00 | 0.00 | 73 | 1016.3 |
| 20260901022204 | 64 | 120 | 0.0 | 2.0 | 0.00 | 0.00 | 0.00 | 73 | 1016.2 |
| 20260901021703 | 64 | 125 | 0.0 | 3.0 | 0.00 | 0.00 | 0.00 | 72 | 1016.2 |
| 20260901020703 | 65 | 167 | 0.0 | 3.0 | 0.00 | 0.00 | 0.00 | 71 | 1016.1 |
| 20260901020203 | 65 | 136 | 0.0 | 3.0 | 0.00 | 0.00 | 0.00 | 70 | 1016.1 |
| 20260901015703 | 65 | 123 | 1.0 | 2.0 | 0.00 | 0.00 | 0.00 | 69 | 1016.2 |
| 20260901015204 | 66 | 129 | 0.0 | 2.0 | 0.00 | 0.00 | 0.00 | 69 | 1016.2 |
| 20260901014703 | 66 | 129 | 0.0 | 3.0 | 0.00 | 0.00 | 0.00 | 68 | 1016.1 |
| 20260901014204 | 67 | 121 | 0.0 | 3.0 | 0.00 | 0.00 | 0.00 | 67 | 1016.1 |
| 20260901013703 | 68 | 112 | 0.0 | 3.0 | 0.00 | 0.00 | 0.00 | 66 | 1016.1 |
| 20260901013204 | 69 | 123 | 0.0 | 3.0 | 0.00 | 0.00 | 0.00 | 65 | 1016.1 |
| 20260901012204 | 69 | 127 | 0.0 | 3.0 | 0.00 | 0.00 | 0.00 | 65 | 1016.1 |
| 20260901011704 | 69 | 119 | 2.0 | 3.0 | 0.00 | 0.00 | 0.00 | 64 | 1016.1 |
| 20260901011203 | 70 | 132 | 1.0 | 3.0 | 0.00 | 0.00 | 0.00 | 65 | 1016.2 |
| 20260901010704 | 71 | 158 | 0.0 | 3.0 | 0.00 | 0.00 | 0.00 | 63 | 1016.1 |
| 20260901010204 | 70 | 101 | 0.0 | 3.0 | 0.00 | 0.00 | 0.00 | 64 | 1016.1 |
| 20260901005703 | 71 | 157 | 1.0 | 3.0 | 0.00 | 0.00 | 0.00 | 63 | 1016.1 |
| 20260901005204 | 71 | 131 | 0.0 | 3.0 | 0.00 | 0.00 | 0.00 | 63 | 1016.1 |
| 20260901004703 | 71 | 126 | 0.0 | 3.0 | 0.00 | 0.00 | 0.00 | 63 | 1016.0 |
| 20260901004204 | 71 | 160 | 1.0 | 3.0 | 0.00 | 0.00 | 0.00 | 63 | 1015.9 |
| 20260901003703 | 71 | 134 | 1.0 | 3.0 | 0.00 | 0.00 | 0.00 | 63 | 1016.0 |
| 20260901003204 | 71 | 117 | 0.0 | 3.0 | 0.00 | 0.00 | 0.00 | 64 | 1015.9 |
| 20260901002704 | 71 | 119 | 1.0 | 6.0 | 0.00 | 0.00 | 0.00 | 64 | 1015.9 |
| 20260901002204 | 71 | 132 | 1.0 | 6.0 | 0.00 | 0.00 | 0.00 | 64 | 1016.0 |
| 20260901001704 | 71 | 137 | 1.0 | 3.0 | 0.00 | 0.00 | 0.00 | 64 | 1015.9 |
| 20260901001203 | 71 | 136 | 0.0 | 3.0 | 0.00 | 0.00 | 0.00 | 63 | 1016.0 |
| 20260901000703 | 71 | 151 | 1.0 | 3.0 | 0.00 | 0.00 | 0.00 | 63 | 1016.0 |
| 20260901000204 | 71 | 124 | 1.0 | 3.0 | 0.00 | 0.00 | 0.00 | 62 | 1015.9 |
| 20260831235204 | 71 | 127 | 0.0 | 3.0 | 0.00 | 0.00 | 0.00 | 63 | 1016.1 |
| 20260831234204 | 72 | 151 | 0.0 | 8.0 | 0.00 | 0.00 | 0.00 | 62 | 1015.9 |
| 20260831233704 | 71 | 149 | 0.0 | 7.0 | 0.00 | 0.00 | 0.00 | 62 | 1016.1 |
| 20260831233204 | 71 | 147 | 1.0 | 6.0 | 0.00 | 0.00 | 0.00 | 62 | 1016.2 |
| 20260831232703 | 71 | 135 | 0.0 | 6.0 | 0.00 | 0.00 | 0.00 | 63 | 1016.2 |
| 20260831232204 | 71 | 124 | 1.0 | 6.0 | 0.00 | 0.00 | 0.00 | 61 | 1016.1 |
| 20260831231703 | 72 | 120 | 2.0 | 6.0 | 0.00 | 0.00 | 0.00 | 61 | 1016.1 |
| 20260831231204 | 73 | 153 | 1.0 | 5.0 | 0.00 | 0.00 | 0.00 | 59 | 1016.1 |
| 20260831230703 | 73 | 140 | 1.0 | 5.0 | 0.00 | 0.00 | 0.00 | 60 | 1016.1 |
| 20260831225203 | 73 | 126 | 2.0 | 7.0 | 0.00 | 0.00 | 0.00 | 60 | 1016.3 |
| 20260831224704 | 73 | 137 | 0.0 | 6.0 | 0.00 | 0.00 | 0.00 | 61 | 1016.4 |
| 20260831224203 | 73 | 151 | 1.0 | 6.0 | 0.00 | 0.00 | 0.00 | 61 | 1016.3 |
| 20260831223704 | 73 | 151 | 1.0 | 6.0 | 0.00 | 0.00 | 0.00 | 60 | 1016.3 |
| 20260831223203 | 73 | 150 | 1.0 | 5.0 | 0.00 | 0.00 | 0.00 | 61 | 1016.5 |
| 20260831222204 | 73 | 130 | 1.0 | 6.0 | 0.00 | 0.00 | 0.00 | 61 | 1016.5 |
| 20260831221703 | 73 | 121 | 0.0 | 6.0 | 0.00 | 0.00 | 0.00 | 62 | 1016.6 |
| 20260831221204 | 72 | 156 | 1.0 | 6.0 | 0.00 | 0.00 | 0.00 | 62 | 1016.6 |
| 20260831220703 | 71 | 124 | 0.0 | 6.0 | 0.00 | 0.00 | 0.00 | 65 | 1016.6 |
| 20260831220204 | 71 | 122 | 1.0 | 6.0 | 0.00 | 0.00 | 0.00 | 63 | 1016.8 |
| 20260831215703 | 71 | 118 | 2.0 | 6.0 | 0.00 | 0.00 | 0.00 | 62 | 1016.9 |
| 20260831215203 | 72 | 125 | 1.0 | 6.0 | 0.00 | 0.00 | 0.00 | 62 | 1016.9 |
| 20260831214703 | 72 | 129 | 1.0 | 6.0 | 0.00 | 0.00 | 0.00 | 63 | 1017.0 |
| 20260831214203 | 72 | 140 | 2.0 | 6.0 | 0.00 | 0.00 | 0.00 | 63 | 1017.0 |
| 20260831213703 | 72 | 128 | 1.0 | 6.0 | 0.00 | 0.00 | 0.00 | 63 | 1017.1 |
| 20260831213203 | 72 | 127 | 0.0 | 5.0 | 0.00 | 0.00 | 0.00 | 64 | 1017.1 |
| 20260831212704 | 72 | 144 | 1.0 | 6.0 | 0.00 | 0.00 | 0.00 | 64 | 1017.3 |
| 20260831211703 | 74 | 125 | 2.0 | 6.0 | 0.00 | 0.00 | 0.00 | 62 | 1017.4 |
| 20260831211203 | 73 | 147 | 0.0 | 5.0 | 0.00 | 0.00 | 0.00 | 64 | 1017.4 |
| 20260831210703 | 72 | 144 | 1.0 | 5.0 | 0.00 | 0.00 | 0.00 | 64 | 1017.5 |
| 20260831210204 | 72 | 127 | 1.0 | 7.0 | 0.00 | 0.00 | 0.00 | 63 | 1017.5 |
| 20260831205703 | 72 | 131 | 0.0 | 7.0 | 0.00 | 0.00 | 0.00 | 64 | 1017.5 |
| 20260831204704 | 71 | 123 | 2.0 | 6.0 | 0.00 | 0.00 | 0.00 | 65 | 1017.5 |
| 20260831204204 | 71 | 128 | 2.0 | 6.0 | 0.00 | 0.00 | 0.00 | 65 | 1017.5 |
| 20260831203703 | 70 | 135 | 1.0 | 3.0 | 0.00 | 0.00 | 0.00 | 68 | 1017.5 |
| 20260831202704 | 69 | 147 | 0.0 | 5.0 | 0.00 | 0.00 | 0.00 | 68 | 1017.5 |
| 20260831202203 | 69 | 126 | 2.0 | 7.0 | 0.00 | 0.00 | 0.00 | 67 | 1017.5 |
| 20260831201704 | 69 | 124 | 1.0 | 7.0 | 0.00 | 0.00 | 0.00 | 68 | 1017.6 |
| 20260831201204 | 69 | 126 | 1.0 | 3.0 | 0.00 | 0.00 | 0.00 | 68 | 1017.5 |
| 20260831200704 | 70 | 152 | 0.0 | 3.0 | 0.00 | 0.00 | 0.00 | 68 | 1017.5 |
| 20260831200204 | 69 | 124 | 1.0 | 3.0 | 0.00 | 0.00 | 0.00 | 69 | 1017.5 |
| 20260831194704 | 68 | 121 | 0.0 | 3.0 | 0.00 | 0.00 | 0.00 | 70 | 1017.5 |
| 20260831194204 | 68 | 122 | 0.0 | 3.0 | 0.00 | 0.00 | 0.00 | 71 | 1017.6 |
| 20260831193704 | 68 | 120 | 1.0 | 3.0 | 0.00 | 0.00 | 0.00 | 71 | 1017.7 |
| 20260831193204 | 67 | 122 | 0.0 | 3.0 | 0.00 | 0.00 | 0.00 | 71 | 1017.7 |
| 20260831192703 | 67 | 111 | 1.0 | 3.0 | 0.00 | 0.00 | 0.00 | 72 | 1017.7 |
| 20260831192204 | 67 | 123 | 1.0 | 3.0 | 0.00 | 0.00 | 0.00 | 71 | 1017.7 |
| 20260831191704 | 67 | 125 | 2.0 | 3.0 | 0.00 | 0.00 | 0.00 | 71 | 1017.8 |
| 20260831191204 | 67 | 130 | 1.0 | 3.0 | 0.00 | 0.00 | 0.00 | 72 | 1017.8 |
| 20260831190204 | 67 | 154 | 0.0 | 3.0 | 0.00 | 0.00 | 0.00 | 74 | 1017.7 |
| 20260831185204 | 66 | 158 | 0.0 | 2.0 | 0.00 | 0.00 | 0.00 | 74 | 1017.7 |
| 20260831184704 | 66 | 125 | 0.0 | 2.0 | 0.00 | 0.00 | 0.00 | 75 | 1017.8 |
| 20260831184204 | 66 | 120 | 1.0 | 3.0 | 0.00 | 0.00 | 0.00 | 74 | 1017.8 |
| 20260831183704 | 66 | 125 | 0.0 | 3.0 | 0.00 | 0.00 | 0.00 | 74 | 1017.9 |
| 20260831183203 | 66 | 122 | 0.0 | 1.0 | 0.00 | 0.00 | 0.00 | 76 | 1018.0 |
| 20260831182703 | 66 | 147 | 0.0 | 1.0 | 0.00 | 0.00 | 0.00 | 77 | 1017.9 |
| 20260831182204 | 65 | 118 | 0.0 | 1.0 | 0.00 | 0.00 | 0.00 | 77 | 1017.9 |
| 20260831181704 | 65 | 159 | 0.0 | 2.0 | 0.00 | 0.00 | 0.00 | 77 | 1017.9 |
| 20260831181204 | 65 | 149 | 0.0 | 2.0 | 0.00 | 0.00 | 0.00 | 77 | 1017.9 |
| 20260831180704 | 65 | 128 | 0.0 | 0.0 | 0.00 | 0.00 | 0.00 | 78 | 1017.9 |
| 20260831180204 | 64 | 148 | 0.0 | 0.0 | 0.00 | 0.00 | 0.00 | 79 | 1017.9 |
| 20260831175704 | 64 | 129 | 0.0 | 0.0 | 0.00 | 0.00 | 0.00 | 79 | 1017.9 |
| 20260831175204 | 64 | 135 | 0.0 | 0.0 | 0.00 | 0.00 | 0.00 | 79 | 1018.0 |
| 20260831174704 | 64 | 117 | 0.0 | 0.0 | 0.00 | 0.00 | 0.00 | 79 | 1018.0 |
| 20260831174204 | 64 | 127 | 0.0 | 0.0 | 0.00 | 0.00 | 0.00 | 78 | 1017.9 |
| 20260831173704 | 63 | 129 | 0.0 | 0.0 | 0.00 | 0.00 | 0.00 | 79 | 1018.0 |
| 20260831173204 | 63 | 129 | 0.0 | 0.0 | 0.00 | 0.00 | 0.00 | 79 | 1018.0 |
| 20260831172704 | 63 | 131 | 0.0 | 0.0 | 0.00 | 0.00 | 0.00 | 79 | 1018.0 |
| 20260831172204 | 63 | 127 | 0.0 | 0.0 | 0.00 | 0.00 | 0.00 | 79 | 1017.9 |
| 20260831171204 | 62 | 130 | 0.0 | 0.0 | 0.00 | 0.00 | 0.00 | 80 | 1017.9 |
| 20260831170704 | 62 | 126 | 0.0 | 0.0 | 0.00 | 0.00 | 0.00 | 80 | 1017.8 |
| 20260831165703 | 62 | 129 | 0.0 | 0.0 | 0.00 | 0.00 | 0.00 | 83 | 1017.7 |
| 20260831165204 | 61 | 129 | 0.0 | 1.0 | 0.00 | 0.00 | 0.00 | 83 | 1017.6 |
| 20260831164704 | 61 | 130 | 0.0 | 1.0 | 0.00 | 0.00 | 0.00 | 84 | 1017.5 |
| 20260831164204 | 60 | 127 | 0.0 | 0.0 | 0.00 | 0.00 | 0.00 | 86 | 1017.5 |
| 20260831163204 | 60 | 123 | 0.0 | 0.0 | 0.00 | 0.00 | 0.00 | 89 | 1017.5 |
| 20260831162704 | 60 | 122 | 0.0 | 0.0 | 0.00 | 0.00 | 0.00 | 90 | 1017.4 |
| 20260831162204 | 60 | 121 | 0.0 | 0.0 | 0.00 | 0.00 | 0.00 | 91 | 1017.4 |
| 20260831161703 | 59 | 121 | 0.0 | 0.0 | 0.00 | 0.00 | 0.00 | 92 | 1017.4 |